Stations météo

réclame
Mon MeteoGroup
Lulea/Kallax, Suède (2186): Température de l'air & dewpoint: 11.10.2018 07:00:00 - 17.10.2018 07:00:00 (CEST)Lulea/Kallax, Suède (2186): Vitesse du vent & gusts: 11.10.2018 07:00:00 - 17.10.2018 07:00:00 (CEST)Lulea/Kallax, Suède (2186): Direction du vent: 11.10.2018 07:00:00 - 17.10.2018 07:00:00 (CEST)Lulea/Kallax, Suède (2186): reduced air pressure: 11.10.2018 07:00:00 - 17.10.2018 07:00:00 (CEST)Lulea/Kallax, Suède (2186): visibility: 11.10.2018 07:00:00 - 17.10.2018 07:00:00 (CEST)Lulea/Kallax, Suède (2186): Quantités de précipitations: 11.10.2018 07:00:00 - 17.10.2018 07:00:00 (CEST)
Date & Time tt [°C] td [°C] ff [km/h] ff [knt] fx [km/h] fx [knt] dd ppp [hPa] vv [km] rr [mm]
17.10.2018 07:00:00 6,8 5,1 15 8 22 12 S 1014,4 10 0,0
17.10.2018 06:00:00 5,9 4,4 5 3 18 10 S 1015,5 10 0,0
17.10.2018 05:00:00 5,2 3,9 8 4 11 6 S 1016,1 10 0,0
17.10.2018 04:00:00 2,9 2,2 0 0 7 4 N 1016,4 10 0,0
17.10.2018 03:00:00 2,8 2,1 0 0 4 2 N 1016,7 10 0,0
17.10.2018 02:00:00 3,7 2,5 0 0 11 6 N 1017,1 10 0,0
17.10.2018 01:00:00 4,3 3,0 9 5 11 6 SW 1017,2 10 0,0
17.10.2018 00:00:00 2,6 1,3 0 0 7 4 N 1017,1 10 0,0
16.10.2018 23:00:00 2,7 1,5 2 1 7 4 S 1017,6 10 0,0
16.10.2018 22:00:00 3,8 1,2 0 0 4 2 N 1017,5 10 0,0
16.10.2018 21:00:00 5,5 2,1 0 0 7 4 N 1017,4 10 0,0
16.10.2018 20:00:00 6,3 1,8 2 1 7 4 WSW 1017,3 10 0,0
16.10.2018 19:00:00 7,3 2,0 5 3 14 8 W 1017,0 10 0,0
16.10.2018 18:00:00 7,5 2,2 8 4 14 8 W 1016,7 10 0,0
16.10.2018 17:00:00 7,9 2,0 8 4 14 8 W 1016,0 10 0,0
16.10.2018 16:00:00 9,4 2,0 9 5 25 14 W 1015,7 10 0,0
16.10.2018 15:00:00 10,1 2,2 14 8 25 14 W 1015,1 82 0,0
16.10.2018 14:00:00 10,0 1,9 16 9 25 14 WNW 1014,9 10 0,0
16.10.2018 13:00:00 9,4 1,8 13 7 22 12 W 1014,4 10 0,0
16.10.2018 12:00:00 7,9 1,3 8 4 18 10 WNW 1013,8 10 0,0
16.10.2018 11:00:00 6,6 1,1 4 2 11 6 - 1013,4 10 0,0
16.10.2018 10:00:00 5,4 1,5 5 3 11 6 W 1013,2 10 0,0
16.10.2018 09:00:00 2,7 1,2 4 2 7 4 W 1012,2 10 0,0
16.10.2018 08:00:00 1,4 0,4 5 3 11 6 WNW 1011,8 10 0,0
16.10.2018 07:00:00 3,0 1,2 4 2 11 6 - 1011,5 10 0,0
16.10.2018 06:00:00 3,4 1,6 4 2 11 6 WNW 1011,2 10 0,0
16.10.2018 05:00:00 4,6 2,5 8 4 11 6 NNW 1011,0 10 0,0
16.10.2018 04:00:00 4,6 2,6 5 3 7 4 NW 1011,0 10 0,0
16.10.2018 03:00:00 5,7 3,4 5 3 11 6 NW 1011,0 10 0,0
16.10.2018 02:00:00 6,1 3,6 9 5 11 6 NW 1011,0 10 0,0
16.10.2018 01:00:00 6,3 3,8 4 2 11 6 NNW 1010,8 10 0,0
16.10.2018 00:00:00 6,4 3,7 8 4 11 6 NW 1011,0 10 0,0
15.10.2018 23:00:00 6,5 3,6 4 2 7 4 N 1011,0 10 0,0
15.10.2018 22:00:00 6,4 3,7 4 2 7 4 N 1011,5 10 0,0
15.10.2018 21:00:00 8,3 3,1 5 3 7 4 NNE 1011,6 10 0,0
15.10.2018 20:00:00 8,6 4,0 4 2 7 4 - 1011,5 10 0,0
15.10.2018 19:00:00 7,9 4,8 2 1 7 4 NNW 1012,1 10 0,0
15.10.2018 18:00:00 8,8 5,4 0 0 7 4 N 1011,8 10 0,0
15.10.2018 17:00:00 8,6 5,7 4 2 7 4 NNW 1011,7 10 0,0
15.10.2018 16:00:00 10,2 5,8 5 3 7 4 NW 1011,4 10 0,0
15.10.2018 15:00:00 10,1 5,9 4 2 14 8 WNW 1011,0 10 0,0
15.10.2018 14:00:00 10,7 5,5 9 5 22 12 NNW 1010,6 10 0,0
15.10.2018 13:00:00 10,6 5,1 16 9 25 14 WNW 1009,8 10 0,0
15.10.2018 12:00:00 10,7 5,0 18 10 25 14 WNW 1009,0 10 0,0
15.10.2018 11:00:00 11,4 6,1 21 11 29 16 WNW 1007,8 10 0,0
15.10.2018 10:00:00 11,4 8,6 11 6 18 10 W 1006,2 10 0,0
15.10.2018 09:00:00 10,7 8,3 9 5 18 10 WSW 1004,8 10 0,0
15.10.2018 08:00:00 9,3 7,6 13 7 25 14 SSW 1003,9 10 0,0
15.10.2018 07:00:00 9,3 7,7 16 9 29 16 SSW 1003,5 10 0,0
15.10.2018 06:00:00 9,3 7,7 16 9 25 14 SSW 1002,9 10 0,0
15.10.2018 05:00:00 9,3 7,7 16 9 25 14 SSW 1002,7 10 0,0
15.10.2018 04:00:00 9,5 7,9 16 9 29 16 SSW 1003,0 10 0,0
15.10.2018 03:00:00 9,4 7,8 18 10 25 14 SSW 1003,0 10 0,0
15.10.2018 02:00:00 9,7 8,0 16 9 25 14 SSW 1003,1 10 0,0
15.10.2018 01:00:00 9,9 8,0 15 8 32 18 SSW 1003,4 10 0,0
15.10.2018 00:00:00 9,7 8,0 22 12 36 19 S 1003,8 10 0,0
14.10.2018 23:00:00 9,8 8,1 24 13 40 21 S 1004,0 10 0,0
14.10.2018 22:00:00 10,2 8,5 22 12 36 19 S 1004,1 10 0,0
14.10.2018 21:00:00 11,2 9,1 21 11 40 21 S 1004,0 10 0,0
14.10.2018 20:00:00 11,1 9,2 26 14 40 21 S 1003,9 10 0,0
14.10.2018 19:00:00 10,7 9,1 18 10 32 18 S 1004,3 10 0,0
14.10.2018 18:00:00 11,5 9,7 21 11 32 18 S 1004,5 10 0,0
14.10.2018 17:00:00 10,7 9,1 21 11 32 18 S 1005,0 10 0,0
14.10.2018 16:00:00 11,4 9,5 22 12 40 21 S 1004,9 10 0,0
14.10.2018 15:00:00 12,1 9,8 22 12 36 19 S 1005,0 10 0,0
14.10.2018 14:00:00 12,5 10,0 24 13 40 21 S 1005,2 10 0,0
14.10.2018 13:00:00 11,7 9,8 24 13 40 21 S 1005,7 10 0,0
14.10.2018 12:00:00 12,0 10,1 22 12 32 18 S 1006,3 10 0,0
14.10.2018 11:00:00 11,6 10,0 16 9 32 18 S 1006,3 10 0,0
14.10.2018 10:00:00 11,0 9,9 22 12 32 18 S 1006,7 10 0,0
14.10.2018 09:00:00 10,1 9,3 18 10 29 16 S 1006,5 10 0,0
14.10.2018 08:00:00 10,1 9,3 16 9 25 14 S 1006,5 10 0,0
14.10.2018 07:00:00 9,9 9,1 18 10 25 14 S 1006,8 10 0,0
14.10.2018 06:00:00 10,4 9,5 15 8 32 18 S 1007,1 10 0,0
14.10.2018 05:00:00 12,3 10,7 15 8 32 18 S 1007,0 10 0,0
14.10.2018 04:00:00 11,6 10,7 9 5 14 8 S 1007,0 10 0,0
14.10.2018 03:00:00 10,9 10,0 8 4 18 10 SSW 1007,6 10 0,0
14.10.2018 02:00:00 10,9 10,0 8 4 18 10 S 1008,0 10 0,0
14.10.2018 01:00:00 10,0 9,2 11 6 18 10 S 1008,4 10 0,0
14.10.2018 00:00:00 10,5 9,6 11 6 18 10 S 1008,7 10 0,0
13.10.2018 23:00:00 10,7 9,8 9 5 18 10 SSW 1009,1 10 0,0
13.10.2018 22:00:00 9,5 8,9 13 7 22 12 S 1009,2 9 0,0
13.10.2018 21:00:00 9,9 9,0 13 7 18 10 S 1009,0 10 0,0
13.10.2018 20:00:00 10,0 9,1 9 5 18 10 SSW 1010,0 9 0,0
13.10.2018 19:00:00 9,0 8,2 11 6 18 10 S 1009,7 8 0,0
13.10.2018 18:00:00 8,8 8,0 11 6 22 12 S 1010,1 7 0,0
13.10.2018 17:00:00 9,3 8,4 16 9 29 16 S 1009,8 7 0,0
13.10.2018 16:00:00 9,6 8,5 18 10 32 18 S 1010,4 9 0,0
13.10.2018 15:00:00 9,8 8,9 21 11 32 18 S 1010,8 7 0,0
13.10.2018 14:00:00 10,3 9,3 15 8 29 16 S 1010,9 8 0,0
13.10.2018 13:00:00 9,7 8,9 8 4 22 12 S 1010,8 7 0,0
13.10.2018 12:00:00 8,8 8,3 18 10 25 14 S 1010,9 3,3 0,0
13.10.2018 11:00:00 8,5 8,1 15 8 25 14 S 1011,4 3,5 0,0
13.10.2018 10:00:00 8,4 8,0 13 7 29 16 SSW 1011,8 7 0,0
13.10.2018 09:00:00 8,0 7,7 16 9 29 16 S 1012,3 1,5 0,0
13.10.2018 08:00:00 7,6 7,3 16 9 25 14 S 1011,5 1,0 0,0
13.10.2018 07:00:00 7,4 7,1 15 8 25 14 SSE 1012,6 1,1 0,0
13.10.2018 06:00:00 7,3 7,0 13 7 22 12 S 1013,5 2,0 0,0
13.10.2018 05:00:00 7,3 7,0 13 7 18 10 S 1014,1 7 0,0
13.10.2018 04:00:00 7,1 6,8 8 4 11 6 S 1014,5 4,7 0,0
13.10.2018 03:00:00 6,6 6,5 4 2 11 6 - 1015,3 1,8 0,0
13.10.2018 02:00:00 5,8 5,7 4 2 7 4 S 1015,6 1,9 0,0
13.10.2018 01:00:00 5,2 4,9 0 0 7 4 N 1015,3 1,9 0,0
13.10.2018 00:00:00 5,0 4,7 4 2 7 4 NNW 1016,1 2,0 0,0
12.10.2018 23:00:00 5,3 5,2 4 2 7 4 - 1016,9 1,6 0,0
12.10.2018 22:00:00 5,2 4,9 0 0 7 4 N 1017,2 0,8 0,0
12.10.2018 21:00:00 5,3 5,0 0 0 7 4 N 1017,1 0,5 0,0
12.10.2018 20:00:00 5,3 5,0 0 0 4 2 N 1017,2 0,4 0,0
12.10.2018 19:00:00 4,9 4,6 2 1 4 2 - 1017,9 0,6 0,0
12.10.2018 18:00:00 4,7 4,4 2 1 7 4 - 1018,7 0,6 0,0
12.10.2018 17:00:00 4,6 4,3 2 1 4 2 - 1019,2 0,5 0,0
12.10.2018 16:00:00 4,6 4,3 0 0 7 4 N 1019,5 0,5 0,0
12.10.2018 15:00:00 4,3 4,0 2 1 14 8 - 1020,2 1,1 0,0
12.10.2018 14:00:00 4,3 4,0 8 4 14 8 WNW 1020,2 2,5 0,0
12.10.2018 13:00:00 4,9 4,6 5 3 11 6 WNW 1020,4 1,1 0,0
12.10.2018 12:00:00 5,3 5,0 8 4 14 8 W 1020,5 1,7 0,0
12.10.2018 11:00:00 6,3 6,0 9 5 22 12 W 1020,2 2,0 0,0
12.10.2018 10:00:00 6,7 6,4 5 3 14 8 WSW 1020,0 2,0 0,0
12.10.2018 09:00:00 6,8 6,5 5 3 14 8 WSW 1020,1 1,5 0,0
12.10.2018 08:00:00 6,9 6,6 11 6 14 8 SSW 1019,7 0,9 0,0
12.10.2018 07:00:00 7,2 6,9 5 3 11 6 S 1019,8 0,6 0,0
12.10.2018 06:00:00 7,3 7,0 5 3 14 8 SSW 1019,8 0,3 0,0
12.10.2018 05:00:00 7,0 6,7 5 3 7 4 S 1020,0 0,2 0,0
12.10.2018 04:00:00 6,5 6,2 5 3 11 6 SSW 1020,6 0,2 0,0
12.10.2018 03:00:00 6,4 6,1 0 0 11 6 N 1020,7 0,2 0,0
12.10.2018 02:00:00 6,6 6,5 8 4 14 8 S 1021,3 0,3 0,0
12.10.2018 01:00:00 7,0 6,7 9 5 14 8 S 1021,2 0,2 0,0
12.10.2018 00:00:00 7,0 6,7 9 5 18 10 S 1021,5 0,2 0,0
11.10.2018 23:00:00 6,9 6,6 9 5 18 10 S 1022,1 0,3 0,0
11.10.2018 22:00:00 7,1 6,7 15 8 22 12 S 1022,3 0,3 0,0
11.10.2018 21:00:00 7,0 6,6 13 7 22 12 S 1022,5 0,9 0,0
11.10.2018 20:00:00 7,8 7,0 16 9 25 14 S 1022,7 10 0,0
11.10.2018 19:00:00 7,9 6,4 11 6 18 10 S 1022,9 10 0,0
11.10.2018 18:00:00 8,4 6,4 13 7 18 10 S 1023,1 10 0,0
11.10.2018 17:00:00 8,0 6,1 11 6 18 10 S 1023,4 10 0,0
11.10.2018 16:00:00 8,3 6,3 9 5 22 12 S 1023,5 10 0,0
11.10.2018 15:00:00 9,8 5,8 11 6 18 10 S 1023,6 10 0,0
11.10.2018 14:00:00 10,9 5,0 11 6 18 10 S 1024,0 10 0,0
11.10.2018 13:00:00 11,0 4,9 9 5 14 8 S 1024,2 10 0,0
11.10.2018 12:00:00 10,1 5,3 11 6 14 8 SSW 1024,3 10 0,0
11.10.2018 11:00:00 9,3 4,7 5 3 11 6 S 1024,2 10 0,0
11.10.2018 10:00:00 8,2 4,4 0 0 7 4 N 1024,1 10 0,0
11.10.2018 09:00:00 3,9 3,0 0 0 4 2 N 1023,8 10 0,0
11.10.2018 08:00:00 2,1 1,5 0 0 4 2 N 1023,1 10 0,0
11.10.2018 07:00:00 2,3 1,4 0 0 7 4 N 1023,0 10 0,0

tt = Température de l'air
td = dewpoint
ff = Vitesse du vent
fx = gusts
dd = Direction du vent
ppp = reduced air pressure
vv = visibility
rr = Quantités de précipitations

stations d'obs. à proximité